Radiation Dose at Monitoring Post of Fukushima Daini Nuclear Power Station
Date,Time,MP-1(microSv/h),MP-2(microSv/h),MP-3(microSv/h),MP-4(microSv/h),MP-5(microSv/h),MP-6(microSv/h),MP-7(microSv/h),Wind Direction,Wind Velocity(m/s),Rain
2019/11/16,00:00,0.188,0.166,0.281,0.263,0.263,0.145,0.088,west-southwest,2.4,No
2019/11/16,00:10,0.189,0.165,0.281,0.263,0.263,0.144,0.088,north-northwest,0.7,No
2019/11/16,00:20,0.190,0.167,0.281,0.263,0.264,0.145,0.088,north,1.5,No
2019/11/16,00:30,0.188,0.165,0.281,0.263,0.262,0.144,0.089,northeast,2.8,No
2019/11/16,00:40,0.188,0.166,0.281,0.263,0.263,0.144,0.088,northeast,3.3,No
2019/11/16,00:50,0.190,0.166,0.281,0.264,0.264,0.144,0.089,north,2.4,No
2019/11/16,01:00,0.188,0.166,0.281,0.264,0.263,0.145,0.089,north-northwest,1.6,No
2019/11/16,01:10,0.188,0.166,0.282,0.264,0.263,0.144,0.090,north-northwest,1.8,No
2019/11/16,01:20,0.190,0.165,0.282,0.264,0.263,0.145,0.089,north-northwest,1.0,No
2019/11/16,01:30,0.190,0.166,0.280,0.265,0.263,0.145,0.088,northwest,2.8,No
2019/11/16,01:40,0.188,0.165,0.281,0.264,0.261,0.144,0.088,west-northwest,5.5,No
2019/11/16,01:50,0.189,0.165,0.281,0.263,0.263,0.145,0.089,west-northwest,5.9,No
2019/11/16,02:00,0.189,0.165,0.281,0.264,0.263,0.144,0.089,west-northwest,7.0,No
2019/11/16,02:10,0.189,0.166,0.281,0.264,0.263,0.144,0.088,west-northwest,5.8,No
2019/11/16,02:20,0.188,0.164,0.281,0.263,0.263,0.145,0.088,west-northwest,5.9,No
2019/11/16,02:30,0.189,0.165,0.281,0.263,0.262,0.144,0.088,west-northwest,6.1,No
2019/11/16,02:40,0.188,0.165,0.280,0.263,0.262,0.144,0.089,northwest,6.0,No
2019/11/16,02:50,0.188,0.166,0.281,0.264,0.264,0.143,0.088,northwest,4.8,No
2019/11/16,03:00,0.190,0.166,0.280,0.263,0.263,0.144,0.088,northwest,3.9,No
2019/11/16,03:10,0.188,0.165,0.280,0.263,0.262,0.145,0.088,north-northwest,3.8,No
2019/11/16,03:20,0.189,0.165,0.281,0.263,0.264,0.144,0.088,northwest,3.6,No
2019/11/16,03:30,0.189,0.164,0.280,0.263,0.263,0.144,0.088,west-northwest,2.9,No
2019/11/16,03:40,0.188,0.165,0.279,0.263,0.262,0.145,0.088,east-northeast,1.1,No
2019/11/16,03:50,0.186,0.165,0.280,0.264,0.263,0.144,0.088,east-northeast,0.8,No
2019/11/16,04:00,0.189,0.165,0.280,0.263,0.264,0.144,0.089,southwest,0.7,No
2019/11/16,04:10,0.189,0.165,0.280,0.263,0.262,0.144,0.088,south-southeast,1.2,No
2019/11/16,04:20,0.189,0.166,0.280,0.263,0.263,0.144,0.088,southwest,1.7,No
2019/11/16,04:30,0.189,0.165,0.281,0.263,0.263,0.144,0.089,west-southwest,0.6,No
2019/11/16,04:40,0.189,0.165,0.281,0.262,0.261,0.144,0.088,-,CALM,No
2019/11/16,04:50,0.189,0.165,0.281,0.261,0.263,0.144,0.089,-,CALM,No
2019/11/16,05:00,0.188,0.166,0.281,0.263,0.263,0.143,0.088,east-northeast,1.0,No
2019/11/16,05:10,0.189,0.166,0.282,0.263,0.262,0.144,0.089,east-southeast,1.4,No
2019/11/16,05:20,0.188,0.165,0.280,0.263,0.263,0.144,0.088,south-southeast,1.2,No
2019/11/16,05:30,0.189,0.165,0.280,0.263,0.263,0.144,0.089,south-southwest,0.8,No
2019/11/16,05:40,0.190,0.165,0.282,0.263,0.261,0.145,0.088,west,0.7,No
2019/11/16,05:50,0.189,0.165,0.282,0.262,0.263,0.144,0.088,northeast,0.6,No
2019/11/16,06:00,0.188,0.165,0.279,0.262,0.263,0.144,0.088,-,CALM,No
2019/11/16,06:10,0.188,0.166,0.282,0.263,0.263,0.144,0.089,northwest,0.7,No
2019/11/16,06:20,0.188,0.165,0.282,0.263,0.264,0.144,0.090,north-northwest,1.0,No
2019/11/16,06:30,0.188,0.165,0.281,0.263,0.263,0.143,0.089,northwest,1.4,No
2019/11/16,06:40,0.188,0.166,0.279,0.262,0.262,0.144,0.088,west,2.6,No
2019/11/16,06:50,0.189,0.165,0.281,0.262,0.262,0.144,0.088,west-northwest,2.2,No
2019/11/16,07:00,0.189,0.164,0.282,0.264,0.263,0.145,0.088,west-northwest,2.7,No
2019/11/16,07:10,0.190,0.165,0.280,0.262,0.264,0.143,0.088,west-northwest,2.9,No
2019/11/16,07:20,0.189,0.165,0.281,0.264,0.262,0.144,0.088,west,2.7,No
2019/11/16,07:30,0.189,0.165,0.282,0.263,0.262,0.144,0.089,west,2.5,No
2019/11/16,07:40,0.189,0.165,0.280,0.262,0.263,0.143,0.087,west,3.6,No
2019/11/16,07:50,0.189,0.166,0.280,0.263,0.262,0.145,0.088,west,3.4,No
2019/11/16,08:00,0.189,0.166,0.281,0.262,0.263,0.144,0.089,west-northwest,1.7,No
2019/11/16,08:10,0.189,0.165,0.282,0.261,0.263,0.144,0.088,west-northwest,1.2,No
2019/11/16,08:20,0.189,0.166,0.280,0.264,0.263,0.144,0.088,west-northwest,0.6,No
2019/11/16,08:30,0.190,0.164,0.281,0.260,0.264,0.144,0.089,west,0.7,No
2019/11/16,08:40,0.188,0.166,0.280,0.262,0.263,0.143,0.088,west,1.5,No
2019/11/16,08:50,0.189,0.166,0.280,0.261,0.262,0.143,0.089,west-northwest,2.2,No
2019/11/16,09:00,0.188,0.165,0.280,0.262,0.263,0.143,0.088,west,1.6,No
2019/11/16,09:10,0.189,0.165,0.279,0.262,0.262,0.144,0.089,southeast,0.9,No
2019/11/16,09:20,0.189,0.163,0.280,0.264,0.265,0.144,0.087,southeast,0.9,No
2019/11/16,09:30,0.188,0.165,0.281,0.260,0.262,0.144,0.088,east-northeast,1.1,No
2019/11/16,09:40,0.189,0.165,0.279,0.263,0.264,0.143,0.088,northeast,0.7,No
2019/11/16,09:50,0.187,0.165,0.281,0.262,0.262,0.145,0.088,-,CALM,No
2019/11/16,10:00,0.188,0.164,0.280,0.259,0.264,0.144,0.089,northeast,1.1,No
2019/11/16,10:10,0.188,0.165,0.280,0.262,0.263,0.143,0.088,west-northwest,1.4,No
2019/11/16,10:20,0.188,0.164,0.281,0.261,0.262,0.144,0.088,west,4.3,No
2019/11/16,10:30,0.188,0.165,0.279,0.264,0.262,0.144,0.088,west-northwest,4.9,No
2019/11/16,10:40,0.189,0.166,0.282,0.262,0.263,0.144,0.088,west-northwest,6.1,No
2019/11/16,10:50,0.188,0.165,0.279,0.264,0.262,0.145,0.088,west-northwest,4.2,No
2019/11/16,11:00,0.189,0.166,0.280,0.262,0.264,0.144,0.088,west,7.3,No
2019/11/16,11:10,0.189,0.166,0.281,0.264,0.264,0.143,0.088,west-northwest,5.3,No
2019/11/16,11:20,0.190,0.165,0.280,0.263,0.265,0.144,0.088,west-northwest,5.8,No
2019/11/16,11:30,0.187,0.165,0.281,0.264,0.262,0.144,0.087,west-northwest,4.8,No
2019/11/16,11:40,0.188,0.166,0.280,0.262,0.263,0.144,0.088,west,7.0,No
2019/11/16,11:50,0.188,0.165,0.281,0.263,0.263,0.144,0.088,west-northwest,5.0,No
2019/11/16,12:00,0.188,0.165,0.280,0.263,0.264,0.144,0.087,west-northwest,5.0,No
2019/11/16,12:10,0.189,0.165,0.281,0.264,0.262,0.144,0.088,west-northwest,5.4,No
2019/11/16,12:20,0.190,0.166,0.280,0.262,0.263,0.144,0.088,northwest,5.0,No
2019/11/16,12:30,0.188,0.165,0.281,0.263,0.264,0.143,0.088,northwest,5.2,No
2019/11/16,12:40,0.189,0.165,0.280,0.262,0.265,0.144,0.088,northwest,5.7,No
2019/11/16,12:50,0.187,0.166,0.281,0.263,0.261,0.143,0.089,northwest,6.0,No
2019/11/16,13:00,0.190,0.164,0.281,0.264,0.264,0.144,0.088,northwest,4.8,No
2019/11/16,13:10,0.189,0.167,0.280,0.263,0.261,0.143,0.088,west-northwest,3.8,No
2019/11/16,13:20,0.190,0.166,0.282,0.265,0.264,0.144,0.088,west-northwest,3.8,No
2019/11/16,13:30,0.190,0.164,0.282,0.263,0.263,0.143,0.088,west-northwest,4.6,No
2019/11/16,13:40,0.189,0.165,0.281,0.264,0.264,0.145,0.088,west,5.2,No
2019/11/16,13:50,0.190,0.165,0.282,0.264,0.265,0.143,0.088,west-northwest,3.6,No
2019/11/16,14:00,0.188,0.165,0.281,0.265,0.264,0.144,0.089,northwest,3.6,No
2019/11/16,14:10,0.189,0.166,0.281,0.264,0.266,0.144,0.087,west-northwest,3.1,No
2019/11/16,14:20,0.189,0.166,0.279,0.263,0.261,0.144,0.089,west,2.6,No
2019/11/16,14:30,0.189,0.166,0.280,0.264,0.264,0.144,0.089,west,5.8,No
2019/11/16,14:40,0.191,0.165,0.282,0.264,0.262,0.144,0.088,west-northwest,4.2,No
2019/11/16,14:50,0.188,0.166,0.281,0.264,0.266,0.143,0.088,west-northwest,3.1,No
2019/11/16,15:00,0.189,0.164,0.282,0.262,0.262,0.145,0.089,west-northwest,2.5,No
2019/11/16,15:10,0.189,0.165,0.281,0.264,0.264,0.144,0.088,west-southwest,1.7,No
2019/11/16,15:20,0.189,0.165,0.282,0.263,0.262,0.143,0.088,west-northwest,1.8,No
2019/11/16,15:30,0.189,0.166,0.281,0.264,0.264,0.143,0.088,west-northwest,2.6,No
2019/11/16,15:40,0.188,0.165,0.279,0.263,0.263,0.144,0.088,west-northwest,4.3,No
2019/11/16,15:50,0.189,0.166,0.281,0.264,0.263,0.144,0.088,west-northwest,2.3,No
2019/11/16,16:00,0.189,0.166,0.280,0.264,0.263,0.145,0.088,northwest,3.4,No
2019/11/16,16:10,0.189,0.165,0.282,0.264,0.263,0.144,0.089,northwest,5.1,No
2019/11/16,16:20,0.188,0.166,0.281,0.265,0.262,0.144,0.089,northwest,4.4,No
2019/11/16,16:30,0.190,0.165,0.282,0.263,0.263,0.144,0.088,northwest,4.6,No
2019/11/16,16:40,0.189,0.166,0.281,0.264,0.264,0.145,0.088,west-northwest,4.1,No
2019/11/16,16:50,0.189,0.167,0.280,0.264,0.264,0.144,0.088,northwest,3.9,No
2019/11/16,17:00,0.190,0.165,0.283,0.263,0.265,0.144,0.087,northwest,2.3,No
2019/11/16,17:10,0.187,0.165,0.281,0.264,0.263,0.145,0.089,west-northwest,2.0,No
2019/11/16,17:20,0.189,0.166,0.282,0.263,0.263,0.144,0.089,northwest,1.8,Yes
2019/11/16,17:30,0.188,0.165,0.281,0.263,0.263,0.144,0.088,northwest,1.7,No
2019/11/16,17:40,0.189,0.165,0.281,0.264,0.262,0.143,0.088,north,2.0,No
2019/11/16,17:50,0.189,0.165,0.282,0.263,0.264,0.144,0.088,north,2.4,No
2019/11/16,18:00,0.189,0.166,0.280,0.263,0.263,0.145,0.089,north,3.1,No
2019/11/16,18:10,0.189,0.166,0.281,0.262,0.264,0.145,0.089,north-northwest,2.9,No
2019/11/16,18:20,0.188,0.166,0.282,0.263,0.263,0.144,0.088,north-northwest,3.5,No
2019/11/16,18:30,0.189,0.167,0.281,0.264,0.263,0.145,0.089,north,2.6,No
2019/11/16,18:40,0.189,0.166,0.283,0.263,0.265,0.144,0.088,north,2.1,No
2019/11/16,18:50,0.189,0.165,0.281,0.263,0.264,0.145,0.088,north,2.6,No
2019/11/16,19:00,0.190,0.166,0.281,0.264,0.263,0.144,0.088,north,3.2,No
2019/11/16,19:10,0.189,0.165,0.283,0.264,0.264,0.144,0.088,north,4.1,No
2019/11/16,19:20,0.189,0.164,0.281,0.264,0.261,0.144,0.089,north,3.3,No
2019/11/16,19:30,0.190,0.166,0.281,0.264,0.265,0.145,0.088,north,3.0,No
2019/11/16,19:40,0.189,0.165,0.282,0.264,0.263,0.145,0.089,north,3.2,No
2019/11/16,19:50,0.189,0.165,0.280,0.263,0.264,0.146,0.088,north-northwest,2.6,No
2019/11/16,20:00,0.188,0.166,0.281,0.263,0.265,0.144,0.088,north,3.4,No
2019/11/16,20:10,0.189,0.165,0.281,0.264,0.263,0.144,0.088,north,3.2,No
2019/11/16,20:20,0.189,0.167,0.282,0.264,0.263,0.144,0.089,north-northwest,2.9,No
2019/11/16,20:30,0.189,0.166,0.282,0.264,0.265,0.145,0.088,north-northwest,2.4,Yes
2019/11/16,20:40,0.190,0.165,0.282,0.265,0.264,0.145,0.089,northwest,1.4,Yes
2019/11/16,20:50,0.188,0.167,0.283,0.266,0.265,0.145,0.090,west-northwest,1.2,Yes
2019/11/16,21:00,0.191,0.165,0.282,0.264,0.265,0.146,0.091,-,CALM,Yes
2019/11/16,21:10,0.190,0.167,0.281,0.265,0.265,0.146,0.090,south,3.0,No
2019/11/16,21:20,0.189,0.167,0.281,0.265,0.263,0.145,0.090,southwest,1.1,No
2019/11/16,21:30,0.190,0.167,0.283,0.264,0.263,0.147,0.090,-,CALM,No
2019/11/16,21:40,0.190,0.166,0.281,0.264,0.265,0.146,0.091,-,CALM,No
2019/11/16,21:50,0.188,0.166,0.282,0.265,0.263,0.146,0.090,-,CALM,No
2019/11/16,22:00,0.190,0.165,0.283,0.263,0.264,0.145,0.089,-,CALM,No
2019/11/16,22:10,0.190,0.166,0.281,0.264,0.264,0.146,0.090,-,CALM,No
2019/11/16,22:20,0.188,0.166,0.283,0.264,0.264,0.146,0.089,west-northwest,0.9,No
2019/11/16,22:30,0.191,0.166,0.282,0.262,0.264,0.144,0.089,west-northwest,1.8,No
2019/11/16,22:40,0.190,0.165,0.281,0.264,0.264,0.144,0.089,west-northwest,2.3,No
2019/11/16,22:50,0.188,0.166,0.282,0.265,0.265,0.145,0.089,west-northwest,2.5,No
2019/11/16,23:00,0.189,0.165,0.282,0.264,0.261,0.144,0.089,northwest,1.5,No
2019/11/16,23:10,0.188,0.166,0.282,0.265,0.265,0.144,0.088,north-northwest,1.1,Yes
2019/11/16,23:20,0.190,0.166,0.282,0.263,0.262,0.145,0.089,northwest,1.5,Yes
2019/11/16,23:30,0.189,0.165,0.282,0.263,0.263,0.144,0.088,west,1.7,No
2019/11/16,23:40,0.188,0.167,0.282,0.264,0.265,0.144,0.088,-,CALM,No
2019/11/16,23:50,0.190,0.166,0.281,0.264,0.262,0.144,0.089,-,CALM,No
